TimeEDT,TemperatureF,Dew PointF,Humidity,Sea Level PressureIn,VisibilityMPH,Wind Direction,Wind SpeedMPH,Gust SpeedMPH,PrecipitationIn,Events,Conditions,WindDirDegrees,DateUTC
12:15 AM,30.4,24.1,77,30.23,10.0,Calm,Calm,-,N/A,,Clear,0,2013-03-15 04:15:00
12:35 AM,32.0,22.5,68,30.22,10.0,Calm,Calm,-,N/A,,Clear,0,2013-03-15 04:35:00
12:55 AM,31.6,22.5,69,30.22,10.0,Calm,Calm,-,N/A,,Clear,0,2013-03-15 04:55:00
1:15 AM,32.0,21.4,65,30.22,10.0,Calm,Calm,-,N/A,,Clear,0,2013-03-15 05:15:00
1:35 AM,32.0,22.8,69,30.22,10.0,Calm,Calm,-,N/A,,Clear,0,2013-03-15 05:35:00
1:55 AM,30.6,23.4,75,30.21,10.0,Calm,Calm,-,N/A,,Clear,0,2013-03-15 05:55:00
2:15 AM,32.9,21.6,63,30.21,10.0,Calm,Calm,-,N/A,,Clear,0,2013-03-15 06:15:00
2:35 AM,30.6,22.6,72,30.20,10.0,Calm,Calm,-,N/A,,Clear,0,2013-03-15 06:35:00
2:55 AM,31.1,21.7,68,30.19,10.0,Calm,Calm,-,N/A,,Scattered Clouds,0,2013-03-15 06:55:00
3:15 AM,29.8,22.1,73,30.18,10.0,Calm,Calm,-,N/A,,Scattered Clouds,0,2013-03-15 07:15:00
3:35 AM,30.4,20.8,68,30.18,10.0,West,3.5,-,N/A,,Scattered Clouds,280,2013-03-15 07:35:00
3:55 AM,27.9,21.6,77,30.18,10.0,Calm,Calm,-,N/A,,Clear,0,2013-03-15 07:55:00
4:15 AM,29.8,21.0,70,30.18,10.0,West,3.5,-,N/A,,Clear,280,2013-03-15 08:15:00
4:35 AM,30.4,21.6,70,30.17,10.0,WSW,3.5,-,N/A,,Clear,250,2013-03-15 08:35:00
4:55 AM,27.9,21.4,77,30.17,10.0,WSW,3.5,-,N/A,,Clear,250,2013-03-15 08:55:00
5:15 AM,30.4,20.7,67,30.16,10.0,SW,3.5,-,N/A,,Clear,230,2013-03-15 09:15:00
5:35 AM,27.3,21.9,80,30.15,10.0,SE,3.5,-,N/A,,Clear,130,2013-03-15 09:35:00
5:55 AM,26.6,22.5,84,30.16,10.0,Calm,Calm,-,N/A,,Clear,0,2013-03-15 09:55:00
6:15 AM,30.2,20.7,68,30.17,10.0,NE,3.5,-,N/A,,Clear,40,2013-03-15 10:15:00
6:35 AM,29.3,21.0,71,30.18,10.0,Calm,Calm,-,N/A,,Clear,0,2013-03-15 10:35:00
6:55 AM,29.7,22.1,73,30.18,10.0,Calm,Calm,-,N/A,,Clear,0,2013-03-15 10:55:00
7:15 AM,27.3,21.6,79,30.18,10.0,Calm,Calm,-,N/A,,Clear,0,2013-03-15 11:15:00
7:35 AM,28.2,21.7,77,30.18,10.0,Calm,Calm,-,N/A,,Clear,0,2013-03-15 11:35:00
7:55 AM,26.6,22.3,84,30.19,10.0,Calm,Calm,-,N/A,,Clear,0,2013-03-15 11:55:00
8:15 AM,28.6,23.5,81,30.20,10.0,Calm,Calm,-,N/A,,Clear,0,2013-03-15 12:15:00
8:35 AM,32.2,25.7,77,30.20,10.0,Calm,Calm,-,N/A,,Clear,0,2013-03-15 12:35:00
8:55 AM,35.2,26.2,70,30.20,10.0,Calm,Calm,-,N/A,,Clear,0,2013-03-15 12:55:00
9:15 AM,39.2,23.4,53,30.20,10.0,Calm,Calm,-,N/A,,Clear,0,2013-03-15 13:15:00
9:35 AM,40.6,21.9,47,30.19,10.0,Calm,Calm,-,N/A,,Clear,0,2013-03-15 13:35:00
9:55 AM,41.5,23.2,48,30.18,10.0,Calm,Calm,-,N/A,,Clear,0,2013-03-15 13:55:00
10:15 AM,42.8,23.5,47,30.18,10.0,Calm,Calm,-,N/A,,Clear,0,2013-03-15 14:15:00
10:35 AM,44.6,23.9,44,30.17,10.0,SW,4.6,-,N/A,,Clear,230,2013-03-15 14:35:00
11:55 AM,53.8,27.5,36,30.13,10.0,South,9.2,16.1,N/A,,Clear,180,2013-03-15 15:55:00
12:15 PM,54.5,27.0,35,30.12,10.0,SSW,9.2,17.3,N/A,,Clear,210,2013-03-15 16:15:00
12:35 PM,55.9,28.4,35,30.12,10.0,SSW,10.4,17.3,N/A,,Clear,210,2013-03-15 16:35:00
12:55 PM,56.5,28.6,34,30.10,10.0,SW,12.7,16.1,N/A,,Clear,230,2013-03-15 16:55:00
1:15 PM,58.5,28.9,33,30.09,10.0,SW,13.8,17.3,N/A,,Clear,230,2013-03-15 17:15:00
1:35 PM,58.6,29.1,33,30.07,10.0,SSW,9.2,16.1,N/A,,Clear,200,2013-03-15 17:35:00
1:55 PM,60.1,29.7,32,30.06,10.0,SW,11.5,16.1,N/A,,Clear,230,2013-03-15 17:55:00
2:15 PM,61.5,30.6,31,30.05,10.0,SW,11.5,16.1,N/A,,Clear,220,2013-03-15 18:15:00
2:35 PM,61.9,30.9,31,30.04,10.0,SW,13.8,18.4,N/A,,Clear,220,2013-03-15 18:35:00
2:55 PM,62.4,30.4,30,30.02,10.0,South,11.5,18.4,N/A,,Clear,190,2013-03-15 18:55:00
3:15 PM,64.0,31.3,29,30.01,10.0,SSW,10.4,18.4,N/A,,Clear,200,2013-03-15 19:15:00
3:35 PM,64.9,31.1,28,29.99,10.0,SSW,9.2,17.3,N/A,,Clear,210,2013-03-15 19:35:00
3:55 PM,65.5,31.1,28,29.97,10.0,SSW,10.4,-,N/A,,Clear,200,2013-03-15 19:55:00
4:15 PM,66.9,31.6,27,29.96,10.0,South,10.4,16.1,N/A,,Clear,190,2013-03-15 20:15:00
4:35 PM,66.4,31.1,27,29.96,10.0,South,8.1,18.4,N/A,,Clear,190,2013-03-15 20:35:00
4:55 PM,66.7,31.5,27,29.96,10.0,SSW,10.4,16.1,N/A,,Clear,200,2013-03-15 20:55:00
5:15 PM,67.1,32.0,27,29.95,10.0,SSW,10.4,-,N/A,,Clear,200,2013-03-15 21:15:00
5:35 PM,67.5,31.6,26,29.95,10.0,SSW,10.4,-,N/A,,Clear,200,2013-03-15 21:35:00
5:55 PM,67.5,31.5,26,29.94,10.0,SSW,6.9,-,N/A,,Clear,200,2013-03-15 21:55:00
6:15 PM,66.2,31.8,28,29.94,10.0,SSW,6.9,-,N/A,,Clear,210,2013-03-15 22:15:00
6:35 PM,66.4,32.2,28,29.94,10.0,SSW,4.6,-,N/A,,Clear,200,2013-03-15 22:35:00
6:55 PM,65.7,32.4,29,29.94,10.0,SSW,3.5,-,N/A,,Clear,200,2013-03-15 22:55:00
7:15 PM,62.6,34.2,35,29.95,10.0,Calm,Calm,-,N/A,,Clear,0,2013-03-15 23:15:00
7:35 PM,59.4,35.8,41,29.94,10.0,Calm,Calm,-,N/A,,Clear,0,2013-03-15 23:35:00
7:55 PM,61.5,34.2,36,29.95,10.0,Calm,Calm,-,N/A,,Clear,0,2013-03-15 23:55:00
8:15 PM,55.0,38.1,53,29.95,10.0,ESE,3.5,-,N/A,,Scattered Clouds,110,2013-03-16 00:15:00
8:35 PM,51.3,39.6,64,29.95,10.0,ESE,3.5,-,N/A,,Scattered Clouds,120,2013-03-16 00:35:00
8:55 PM,55.0,36.9,50,29.95,10.0,Calm,Calm,-,N/A,,Scattered Clouds,0,2013-03-16 00:55:00
9:15 PM,49.5,37.8,64,29.95,10.0,Calm,Calm,-,N/A,,Mostly Cloudy,0,2013-03-16 01:15:00
9:35 PM,50.5,37.0,60,29.95,10.0,Calm,Calm,-,N/A,,Mostly Cloudy,0,2013-03-16 01:35:00
9:55 PM,49.8,37.4,62,29.95,10.0,Calm,Calm,-,N/A,,Scattered Clouds,0,2013-03-16 01:55:00
10:15 PM,50.4,36.7,59,29.95,10.0,Calm,Calm,-,N/A,,Clear,0,2013-03-16 02:15:00
10:35 PM,47.1,36.3,66,29.95,10.0,Calm,Calm,-,N/A,,Clear,0,2013-03-16 02:35:00
10:55 PM,48.4,37.2,65,29.95,10.0,Calm,Calm,-,N/A,,Clear,0,2013-03-16 02:55:00
11:15 PM,45.7,37.0,72,29.95,10.0,Calm,Calm,-,N/A,,Clear,0,2013-03-16 03:15:00
11:35 PM,47.5,37.6,69,29.94,10.0,Calm,Calm,-,N/A,,Mostly Cloudy,0,2013-03-16 03:35:00
11:55 PM,46.2,38.8,75,29.93,10.0,SSW,3.5,-,N/A,,Mostly Cloudy,200,2013-03-16 03:55:00